Flag for Norway Weather past 2 weeks in Fosnavåg, Norway

43 °F

Light rain. Partly cloudy.

Feels Like: 38 °F
Forecast: 44 / 52 °F
Wind: 8 mph from North

Location: Orsta-Volda / Hovden

Current Time: Nov 26, 2015 at 4:14:58 PM

Latest Report: Nov 26, 2015 at 3:50 PM

Visibility: N/A

Pressure: 29.42 "Hg

Humidity: 76%

Dew point: 36 °F

Location of FosnavågLocation

Historic Weather in Fosnavåg — Graph


Fosnavåg temperature yesterday

Maximum temperature yesterday: 37 °F (at 5:50 AM)
Minimum temperature yesterday: 32 °F (at 2:50 PM)
Average temperature yesterday: 34 °F

Past Weeks' High & Low Weather Summary

High50 °F (Nov 12, 10:50 PM)100% (Nov 11, 3:50 PM)29.95 "Hg (Nov 11, 3:50 PM)
Low25 °F (Nov 22, 12:20 PM)46% (Nov 17, 9:50 AM)28.97 "Hg (Nov 17, 1:50 PM)
Average38 °F84%29.43 "Hg
* Reported Nov 11 2:50 PM — Nov 26 2:50 PM, Fosnavåg, Weather by CustomWeather, © 2015

Note: Actual official high and low records may vary slightly from our data, if they occured in-between our weather recording intervals... More about our weather records


Fosnavåg weather history for previous 24 hours

Time TempWeatherWind HumidityBarometerVisibility
2:50 PM
Thu, Nov 26
41 °FLight rain. Broken clouds.6 mph76%29.47 "HgN/A
1:50 PM41 °FLight rain. Broken clouds.5 mph76%29.50 "HgN/A
12:50 PM39 °FDrizzle. Broken clouds.12 mph75%29.53 "HgN/A
12:20 PM39 °FLight rain. Broken clouds.8 mph75%29.53 "HgN/A
11:50 AM39 °FLight rain. Broken clouds.6 mph75%29.56 "HgN/A
10:50 AM37 °FLight rain. Broken clouds.6 mph81%29.59 "HgN/A
10:20 AM39 °FScattered showers. Broken clouds.9 mph70%29.62 "HgN/A
9:50 AM37 °FScattered showers. Partly sunny.5 mph75%29.62 "HgN/A
8:50 AM36 °FPassing clouds.6 mph87%29.65 "HgN/A
7:50 AM36 °FScattered showers. Partly cloudy.6 mph87%29.65 "HgN/A
6:50 AM34 °FScattered showers. Partly cloudy.3 mph93%29.68 "HgN/A
5:50 AM32 °FScattered showers. Partly cloudy.3 mph100%29.68 "HgN/A
10:50 PM
Wed, Nov 25
32 °FSnow flurries. Partly cloudy.5 mph100%29.62 "HgN/A
9:50 PM34 °FSnow flurries. Partly cloudy.5 mph93%29.62 "Hg4 mi
8:50 PM32 °FSnow flurries. Partly cloudy.2 mph100%29.59 "HgN/A
7:50 PM32 °FScattered showers. Partly cloudy.2 mph100%29.56 "HgN/A
6:50 PM32 °FSnow flurries. Partly cloudy.3 mph100%29.53 "HgN/A
5:50 PM32 °FScattered showers. Partly cloudy.3 mph100%29.50 "HgN/A
4:50 PM32 °FSnow flurries. Partly cloudy.3 mph100%29.50 "HgN/A
Weather by CustomWeather, © 2015

See weather overviewHow to use our weather pages